Regional Weather Roundup
Issued by NWS

Home | Current Version | Previous Version | Graphics & Text | Print | Product List | Glossary On
Versions: 1 2 3 4 5 6 7 8 9 10 11 12 13 14 15 16 17 18 19 20 21 22 23 24 25 26 27 28 29 30 31 32 33 34 35 36 37 38 39 40 41 42 43 44 45 46 47 48 49 50
000
ASUS43 KMKX 011600
RWRWI

WISCONSIN REGIONAL WEATHER ROUNDUP
NATIONAL WEATHER SERVICE MILWAUKEE/SULLIVAN WI
1100 AM CDT SAT OCT 01 2016

NOTE: "FAIR" INDICATES FEW OR NO CLOUDS BELOW 12,000 FEET WITH NO
SIGNIFICANT WEATHER AND/OR OBSTRUCTIONS TO VISIBILITY.

WIZ001-002-006>008-014>016-023>028-011700-
NORTHWEST WISCONSIN

CITY           SKY/WX    TMP DP  RH WIND       PRES   REMARKS
SUPERIOR ARPT  CLOUDY    55  54  97 E3        30.23F
ASHLAND        CLOUDY    58  55  90 MISG      30.22F
HAYWARD        CLOUDY    63  53  70 NE7       30.20F
SIREN          CLOUDY    59  52  77 NE5       30.21F
CUMBERLAND     SUNNY     59  52  77 NE6       30.20S
RICE LAKE      MOSUNNY   63  52  68 NE6       30.20F
CHETEK         NOT AVBL
LADYSMITH      CLOUDY    60  53  78 N5        30.20F
EAU CLAIRE     NOT AVBL
MENOMONIE      SUNNY     65  54  67 NE6       30.17F
NEW RICHMOND   SUNNY     63  54  71 E6        30.18S
OSCEOLA        MOSUNNY   62  53  74 NE5       30.21F
$$

WIZ003>005-009-010-017-018-011700-
NORTH CENTRAL WISCONSIN

CITY           SKY/WX    TMP DP  RH WIND       PRES   REMARKS
MANITOWISH WTR NOT AVBL
ARBOR VITAE    CLOUDY    57  53  86 CALM      30.20S
WOODRUFF       CLOUDY    57  53  86 CALM      30.20S
RHINELANDER    CLOUDY    59  52  77 E8        30.19F
EAGLE RIVER    MOSUNNY   57  52  82 NE6       30.20S
LAND O LAKES   CLOUDY    58  53  84 NE5       30.22S
PHILLIPS       CLOUDY    56  53  91 NE5       30.19F
TOMAHAWK       CLOUDY    59  52  77 NE3       30.19F
MEDFORD        CLOUDY    57  57 100 NE6       30.17S
MERRILL        CLOUDY    59  54  83 NE7       30.19S
$$

WIZ029-030-035-036-043>047-011700-
CENTRAL WISCONSIN

CITY           SKY/WX    TMP DP  RH WIND       PRES   REMARKS
WAUSAU         CLOUDY    60  54  80 N7        30.14F
MOSINEE        CLOUDY    59  57  94 N7        30.16F
MARSHFIELD     LGT RAIN  63  54  72 NE12      30.15S
STEVENS POINT  CLOUDY    60  54  82 NE9       30.14F
WAUPACA        CLOUDY    66  57  74 N9        30.12F
WAUTOMA        CLOUDY    62  56  80 NE10      30.11
WISC RAPIDS    CLOUDY    64  56  75 NE5       30.14F
CAMP DOUGLAS   NOT AVBL
$$

WIZ011>013-019>022-031-037>040-048>050-011700-
NORTHEAST WISCONSIN

CITY           SKY/WX    TMP DP  RH WIND       PRES   REMARKS
ANTIGO         CLOUDY    58  53  83 NE12      30.17F
SHAWANO        CLOUDY    64  58  81 NE10      30.13F
OCONTO         NOT AVBL
STURGEON BAY   LGT RAIN  61  55  81 NE8       30.12S
GREEN BAY      PTSUNNY   64  59  83 NE13      30.09F
MANITOWOC      CLOUDY    61  57  88 NE7       30.09F
APPLETON       PTSUNNY   61  57  88 NE8       30.09F
CLINTONVILLE   CLOUDY    61  54  77 NE9       30.12F
OSHKOSH        CLOUDY    61  57  87 NE10      30.09S
$$

WIZ032>034-041-042-053>061-011700-
SOUTHWEST WISCONSIN

CITY           SKY/WX    TMP DP  RH WIND       PRES   REMARKS
LA CROSSE      CLOUDY    64  56  75 NE7       30.12S
SPARTA         CLOUDY    60  56  87 NE6       30.13S
VIROQUA        CLOUDY    59  57  95 NE7       30.11S
BOSCOBEL       CLOUDY    63  58  83 NE6       30.10S
PRAIRIE DU CHI CLOUDY    62  55  80 N6        30.09S
PLATTEVILLE    CLOUDY    61  61  99 NE8       30.08R
$$

WIZ056-057-062-063-064-067-068-011700-
SOUTH CENTRAL WISCONSIN

CITY           SKY/WX    TMP DP  RH WIND       PRES   REMARKS
REEDSBURG      NOT AVBL
BARABOO/DELLS  DRIZZLE   58  56  95 NE8       30.10S
LONE ROCK      CLOUDY    61  58  90 NE6       30.10S
MINERAL POINT  CLOUDY    61  61 100 NE7       30.09R
MADISON        DRIZZLE   60  58  92 N8        30.08S FOG
MIDDLETON      CLOUDY    61  61 100 NE10      30.09S
WATERTOWN      CLOUDY    60  60  99 N7        30.06F
MONROE         CLOUDY    63  59  88 N10       30.06S
JANESVILLE     NOT AVBL
$$

WIZ051-052-058>065-066-070>072-011700-
SOUTHEAST WISCONSIN

CITY           SKY/WX    TMP DP  RH WIND       PRES   REMARKS
MILWAUKEE      RAIN      59  56  89 N8        30.06F FOG
WAUKESHA       NOT AVBL
MILWAUKEE/TIMM RAIN      57  54  88 NE6       30.07S
RACINE         LGT RAIN  60  58  92 NE6       30.06S
BURLINGTON     DRIZZLE   57  56  97 NE7       30.06S
KENOSHA        LGT RAIN  60  58  92 NE10      30.05S FOG
FOND DU LAC    CLOUDY    60  57  89 N10       30.09S
SHEBOYGAN      CLOUDY    59  56  89 NE10      30.08S
WEST BEND      CLOUDY    68  68 100 NE5       30.07F
JUNEAU         CLOUDY    59  56  91 NE9       30.09S
$$

LSZ147-162-011700-
LAKE SUPERIOR

STATION/POSITION TIME  TEMP    WIND        PRES    WAVE
                       AIR SEA DIR/SP/G            HT/PER
                 (UTC) (F)     (DEG/KT/KT) (MB)    (FT/S)
W MID LAKE BUOY  1450   57 56   50/ 10/ 10 1023.0F   1/ 3
DEVILS ISLAND    1500   54      70/  4/  5 1023.9S
SAXON HARBOR     1500   56      CALM  /  2 1023.0S
$$

LMZ867-665-643>646-011700-
LAKE MICHIGAN

STATION/POSITION TIME  TEMP    WIND        PRES    WAVE
                       AIR SEA DIR/SP/G            HT/PER
                 (UTC) (F)     (DEG/KT/KT) (MB)    (FT/S)
CHAMBERS ISLAND  1500   62      50/ 10/ 14 1020.0F
S GREEN BAY BUOY 1500   62 62   50/ 14/ 17 1019.4F
N MID LAKE BUOY  1450   61 64  110/ 17/ 21 1019.9S   4/ 5
NORTHPORT PIER   1500   62      80/ 11/ 17 1020.7S
SISTER BAY       1438   64     120/ 10/ 15   N/A
KEWAUNEE LAKESHO 1500   62      50/  5/ 10 1018.9F
SHEBOYGAN LAKESH 1500   59      50/ 13/ 14 1018.3S
PORT WASHINGTON  1540   60      50/ 10/ 12 1018.6F
ATWATER BUOY     1500   60 58   50/ 14/ 17 1017.8S
MILWAUKEE LAKESH 1510   58      30/ 12/ 13   N/A
S MID LAKE BUOY  1450   60 67   80/ 16/ 17 1016.3F   3/ 4
KENOSHA   LAKESH 1500   61      50/ 20/ 23 1016.9S
$$

TC  - TEMPERATURE IN CELSIUS
VSB - VISIBILITY IN STATUTE MILES
WCI - WIND CHILL INDEX
HX  - HEAT INDEX





USA.gov is the U.S. government's official web portal to all federal, state and local government web resources and services.